Change the Weather History Date:

Friday, February 22, 2013

  Actual Average Record
Temperature  
Mean Temperature 55 °F -  
Max Temperature 64 °F 64 °F 80 °F (2007)
Min Temperature 46 °F 45 °F 31 °F (2009)
Degree Days  
Heating Degree Days 10    
Growing Degree Days 5 (Base 50)    
Moisture  
Dew Point 33 °F    
Average Humidity 46    
Maximum Humidity 65    
Minimum Humidity 31    
Precipitation  
Precipitation 0.00 in - - ()
Sea Level Pressure  
Sea Level Pressure 29.95 in    
Wind  
Wind Speed 11 mph (NNE)    
Max Wind Speed 18 mph    
Max Gust Speed 24 mph    
Visibility 10 miles    
Events      
Averages and records for this station are not official NWS values.
T = Trace of Precipitation, MM = Missing Value Source: NWS Daily Summary

Daily Weather History Graph

Daily Weather History Graph

Search for Another Location

Airport or City:

Trip Planner

Search our weather history database for the weather conditions in past years. The results will help you decide how hot, cold, wet, or windy it might be!

Date:

Astronomy

Feb. 22, 2013 Rise Set
Actual Time 7:05 AM CST 6:27 PM CST
Civil Twilight 6:41 AM CST 6:51 PM CST
Nautical Twilight 6:13 AM CST 7:19 PM CST
Astronomical Twilight 5:46 AM CST 7:47 PM CST
Moon 3:48 PM CST (2/22) 4:42 AM CST (2/22)
Length of Visible Light 12h 10m
Length of Day
11h 22m
Waxing Gibbous, 90% of the Moon is Illuminated
Feb 22
Waxing Gibbous
Feb 25
Full
Mar 4
Last Quarter
Mar 11
New
Mar 19
First Quarter

Hourly Weather History & Observations

Time (CST) Temp. Windchill Dew Point Humidity Pressure Visibility Wind Dir Wind Speed Gust Speed Precip Events Conditions
12:55 AM 48.7 °F - 26.6 °F 42% 29.88 in 10.0 mi ENE 6.9 mph - N/A   Clear
1:55 AM 47.3 °F - 28.9 °F 49% 29.88 in 10.0 mi North 5.8 mph - N/A   Clear
2:55 AM 46.4 °F 42.9 °F 29.5 °F 52% 29.87 in 10.0 mi North 6.9 mph - N/A   Clear
3:55 AM 47.5 °F - 27.5 °F 46% 29.89 in 10.0 mi NNW 6.9 mph - N/A   Clear
4:55 AM 46.2 °F 41.7 °F 29.3 °F 52% 29.91 in 10.0 mi North 9.2 mph - N/A   Clear
5:55 AM 52.0 °F - 32.5 °F 48% 29.92 in 10.0 mi North 12.7 mph - N/A   Clear
6:55 AM 50.7 °F - 36.5 °F 58% 29.94 in 10.0 mi North 18.4 mph 24.2 mph N/A   Clear
7:55 AM 49.3 °F - 37.8 °F 65% 29.96 in 10.0 mi North 15.0 mph 24.2 mph N/A   Overcast
8:55 AM 50.7 °F - 37.0 °F 59% 29.99 in 10.0 mi NNE 15.0 mph - N/A   Clear
9:55 AM 53.4 °F - 37.6 °F 55% 30.01 in 10.0 mi NNE 16.1 mph 23.0 mph N/A   Mostly Cloudy
10:55 AM 57.4 °F - 37.2 °F 47% 30.00 in 10.0 mi North 16.1 mph - N/A   Mostly Cloudy
11:55 AM 57.9 °F - 36.9 °F 45% 30.00 in 10.0 mi NNE 16.1 mph 20.7 mph N/A   Mostly Cloudy
12:55 PM 60.1 °F - 37.0 °F 42% 29.97 in 10.0 mi NNE 10.4 mph 18.4 mph N/A   Partly Cloudy
1:55 PM 62.8 °F - 35.1 °F 36% 29.94 in 10.0 mi NE 13.8 mph - N/A   Scattered Clouds
2:55 PM 64.8 °F - 34.9 °F 33% 29.92 in 10.0 mi NE 11.5 mph - N/A   Scattered Clouds
3:55 PM 63.9 °F - 32.7 °F 31% 29.90 in 10.0 mi NNE 11.5 mph - N/A   Mostly Cloudy
4:55 PM 62.4 °F - 31.6 °F 31% 29.91 in 10.0 mi NE 15.0 mph - N/A   Overcast
5:55 PM 59.5 °F - 32.0 °F 35% 29.91 in 10.0 mi NE 10.4 mph - N/A   Mostly Cloudy
6:55 PM 57.2 °F - 32.7 °F 40% 29.94 in 10.0 mi NE 11.5 mph - N/A   Mostly Cloudy
7:55 PM 54.5 °F - 32.5 °F 43% 29.97 in 10.0 mi NNE 9.2 mph - N/A   Scattered Clouds
8:55 PM 54.3 °F - 33.1 °F 45% 29.99 in 10.0 mi NNE 10.4 mph - N/A   Scattered Clouds
9:55 PM 53.1 °F - 33.1 °F 47% 30.00 in 10.0 mi NNE 13.8 mph 20.7 mph N/A   Scattered Clouds
10:55 PM 51.4 °F - 31.5 °F 46% 30.01 in 10.0 mi NNE 16.1 mph - N/A   Clear
11:55 PM 49.8 °F - 30.9 °F 48% 30.01 in 10.0 mi NNE 12.7 mph - N/A   Clear